Tracking 28052 objects as of 24-Sep-2023
HD Live streaming from Space Station
objects crossing your sky now

USA 340

Track USA 340 now!


NORAD ID: 55138
Int'l Code: 2022-144E
Perigee: 35,684.2 km
Apogee: 35,720.2 km
Inclination: 3.1 °
Period: 1,431.4 minutes
Semi major axis: 42073 km
RCS: Unknown
Launch date: November 1, 2022
Source: United States (US)
Launch site: AIR FORCE EASTERN TEST RANGE (AFETR)
Your satellite tracking list
Your tracking list is empty




NASA's NSSDC Master Catalog

Two Line Element Set (TLE):
1 55138U 22144E   23264.67361111 -.00000278  00000-0  00000-0 0  9996
2 55138   3.1489  63.4287 0004278 136.8552 332.9353  1.00599206  2956
Source of the keplerian elements: AFSPC